Location: Glion
(46.4330°N, 6.9246°E)
Time: 10:31:19
(UTC+00:00)

Cosmos 1633 Rocket - Pass Details

Date: 03 March 2021
Orbit: 606 x 624 km, 82.5° (Epoch: 22 April)

Event Time Altitude Azimuth Distance (km) Brightness Sun altitude
Rises 17:55:48 0° 181° (S) 2,888 6.5 -6.7°
Reaches altitude 10° 17:58:01 10° 179° (S) 1,989 5.7 -7.1°
Maximum altitude 18:02:24 71° 97° (E) 665 3.0 -7.9°
Drops below altitude 10° 18:06:50 10° 13° (NNE) 2,009 5.5 -8.6°
Sets 18:09:05 0° 12° (NNE) 2,920 6.4 -9.0°
